Location: Highland Meadows Observing Site
(48.4428°N, 114.5461°W)
Time: 13:20:26
(UTC-06:00)

Amateur Radio Satellites - All Passes

Search period start: 28 June 2017 12:50
Search period end: 29 June 2017 12:50
Location: Highland Meadows Observing Site, 48.4428°N, 114.5461°W

Satellite Date Start Highest point End Downlink Frequencies (MHz)
Time Altitude Azimuth
DUCHIFAT 1 28 Jun 12:56:09 13:00:21 65° 258° (WSW) 13:04:37 145.980
PCSat 28 Jun 12:58:36 13:04:03 85° 121° (ESE) 13:09:31 145.827
NANOSAT C BR1 28 Jun 13:06:43 13:10:48 45° 261° (W) 13:14:55 145.865
Gurwin Techsat 1B 28 Jun 13:11:15 13:15:13 22° 58° (ENE) 13:19:11 435.225
AO-7 28 Jun 13:20:58 13:25:39 17° 36° (NE) 13:30:21 .
Oscar 19 28 Jun 13:29:48 13:34:37 42° 67° (ENE) 13:39:27 437.125/150
ISS 28 Jun 13:41:39 13:44:58 86° 200° (SSW) 13:48:16 437.550
POLYITAN 1 28 Jun 13:49:16 13:52:05 17° 269° (W) 13:54:57 437.675
BUGSAT 1 28 Jun 13:53:01 13:57:04 50° 260° (W) 14:01:12 437.445
LO-87 28 Jun 13:55:15 13:58:02 21° 295° (WNW) 14:00:49 145.935 - 145.965
SPROUT 28 Jun 13:58:58 14:03:15 59° 101° (E) 14:07:30 437.525
QB50P2 28 Jun 14:01:35 14:03:21 12° 272° (W) 14:05:07 145.880/145.840
VELOX 1 28 Jun 14:03:04 14:07:28 57° 101° (E) 14:11:51 145.980
DX 1 28 Jun 14:12:17 14:15:55 25° 94° (E) 14:19:34 434.975-435.025
ESTCUBE 1 28 Jun 14:16:38 14:20:32 30° 294° (WNW) 14:24:27 437.505/2401.250
ITAMSAT 1 28 Jun 14:17:33 14:19:56 13° 52° (NE) 14:22:20 435.822/435.867
Tancredo 1 28 Jun 14:19:31 14:22:06 25° 217° (SW) 14:24:41 437.200
UKube-1 28 Jun 14:22:40 14:26:05 22° 94° (E) 14:29:28 .
PCSat 28 Jun 14:43:43 14:48:07 24° 325° (NW) 14:52:33 145.827
50 SAT 28 Jun 14:46:49 14:50:15 90° 253° (WSW) 14:53:40 437.505
Gurwin Techsat 1B 28 Jun 14:49:24 14:54:41 68° 257° (WSW) 15:00:01 435.225
SO-50 28 Jun 14:56:22 15:00:53 67° 125° (SE) 15:05:24 436.795
AO-7 28 Jun 15:08:37 15:16:34 51° 59° (ENE) 15:24:33 .
Oscar 19 28 Jun 15:09:35 15:14:05 30° 265° (W) 15:18:34 437.125/150
ISS 28 Jun 15:18:43 15:21:05 18° 221° (SW) 15:23:27 437.550
ITUPSAT 1 28 Jun 15:23:59 15:25:14 11° 86° (E) 15:26:27 437.325
BEESAT 28 Jun 15:30:46 15:33:03 13° 88° (E) 15:35:19 436.000
SPROUT 28 Jun 15:35:50 15:38:44 18° 299° (WNW) 15:41:38 437.525
VELOX 1 28 Jun 15:40:24 15:43:31 19° 299° (WNW) 15:46:39 145.980
DX 1 28 Jun 15:48:09 15:52:12 38° 293° (WNW) 15:56:16 434.975-435.025
ITAMSAT 1 28 Jun 15:53:19 15:58:30 71° 72° (ENE) 16:03:43 435.822/435.867
UKube-1 28 Jun 15:58:11 16:02:17 42° 291° (WNW) 16:06:22 .
MOZHAYETS 4 28 Jun 16:07:55 16:11:19 20° 91° (E) 16:14:41
PCSat 28 Jun 16:31:54 16:33:35 11° 350° (N) 16:35:16 145.827
SO-50 28 Jun 16:37:56 16:41:44 25° 325° (NW) 16:45:32 436.795
CUBESAT XI-V 28 Jun 16:58:49 17:01:06 13° 87° (E) 17:03:23 437.345
ITUPSAT 1 28 Jun 16:59:00 17:03:50 82° 104° (ESE) 17:08:37 437.325
AO-7 28 Jun 17:01:34 17:09:26 45° 260° (W) 17:17:25 .
BEESAT 28 Jun 17:06:39 17:11:28 84° 285° (WNW) 17:16:14 436.000
KKS-1 28 Jun 17:17:33 17:19:40 13° 88° (E) 17:21:48 437.445
CUTE-I 28 Jun 17:23:41 17:27:05 17° 55° (NE) 17:30:29 437.470
DOVE 4 28 Jun 17:25:51 17:29:23 26° 64° (ENE) 17:33:03 437.250
HO-68 28 Jun 17:31:02 17:34:21 14° 41° (NE) 17:37:39 435.675
ITAMSAT 1 28 Jun 17:34:58 17:38:30 18° 270° (W) 17:42:04 435.822/435.867
XW-2F 28 Jun 17:41:38 17:43:56 16° 62° (ENE) 17:46:13 145.980 - 146.000
MOZHAYETS 4 28 Jun 17:44:19 17:48:47 52° 290° (WNW) 17:53:12
XW-2D 28 Jun 17:47:38 17:50:21 19° 64° (ENE) 17:53:05 145.860 - 145.880
XW-2B 28 Jun 17:56:25 17:59:24 22° 65° (ENE) 18:02:25 145.730 - 145.750
LilacSat-2 28 Jun 17:59:41 18:02:53 25° 67° (ENE) 18:06:07 437.200
XW-2C 28 Jun 18:11:35 18:14:59 31° 69° (ENE) 18:18:25 145.795 - 145.815
KAITUO 1B 28 Jun 18:17:04 18:20:20 28° 68° (ENE) 18:23:36 145.475/437.950
PCSat 28 Jun 18:17:05 18:19:33 13° 17° (NNE) 18:22:02 145.827
SO-50 28 Jun 18:22:20 18:23:46 11° 349° (N) 18:25:11 436.795
CUTE 1.7 + AOD 2 28 Jun 18:30:14 18:31:35 11° 57° (ENE) 18:32:56 437.475
CUBESAT XI-V 28 Jun 18:34:26 18:39:03 78° 286° (WNW) 18:43:39 437.345
ITUPSAT 1 28 Jun 18:38:09 18:41:02 16° 303° (WNW) 18:43:55 437.325
BEESAT 28 Jun 18:46:08 18:48:31 14° 305° (NW) 18:50:52 436.000
NUDT-PHONESAT 28 Jun 18:47:06 18:50:48 59° 73° (ENE) 18:54:32 437.300
KKS-1 28 Jun 18:52:17 18:56:47 78° 286° (WNW) 19:01:16 437.445
CUTE-I 28 Jun 19:01:05 19:06:25 88° 254° (WSW) 19:11:50 437.470
DOVE 4 28 Jun 19:03:04 19:06:57 36° 264° (W) 19:11:01 437.250
STARS 28 Jun 19:11:57 19:16:25 76° 104° (ESE) 19:20:51 437.465
HO-68 28 Jun 19:13:36 19:20:29 51° 63° (ENE) 19:27:23 435.675
XW-2F 28 Jun 19:13:56 19:17:40 54° 260° (W) 19:21:26 145.980 - 146.000
CUBEBUG 2 28 Jun 19:15:57 19:19:18 20° 61° (ENE) 19:22:42 437.445
XW-2D 28 Jun 19:20:37 19:24:16 42° 262° (W) 19:27:56 145.860 - 145.880
XW-2B 28 Jun 19:29:54 19:33:26 34° 263° (W) 19:36:58 145.730 - 145.750
ZACube-1 28 Jun 19:31:33 19:32:35 11° 55° (NE) 19:33:39 437.345
RS-15 28 Jun 19:32:57 19:40:15 19° 95° (E) 19:47:36 29.354- 29.394
LilacSat-2 28 Jun 19:33:39 19:37:05 30° 264° (W) 19:40:31 437.200
SEEDS 28 Jun 19:38:39 19:42:24 32° 67° (ENE) 19:46:08 437.485
UWE-3 28 Jun 19:41:54 19:45:24 21° 62° (ENE) 19:48:55 435.000/436.395/437.385
XW-2C 28 Jun 19:46:06 19:49:14 23° 266° (W) 19:52:22 145.795 - 145.815
KAITUO 1B 28 Jun 19:51:09 19:54:19 25° 265° (W) 19:57:30 145.475/437.950
PCSat 28 Jun 19:59:46 20:04:42 33° 42° (NE) 20:09:36 145.827
CUTE 1.7 + AOD 2 28 Jun 20:02:29 20:06:44 84° 76° (ENE) 20:10:59 437.475
SO-50 28 Jun 20:04:22 20:06:14 12° 15° (NNE) 20:08:08 436.795
CUBESAT XI-V 28 Jun 20:13:58 20:15:39 12° 305° (NW) 20:17:20 437.345
XW-2A 28 Jun 20:14:13 20:17:40 87° 78° (ENE) 20:21:09 145.665 - 145.685
AAUSAT CUBESAT 2 28 Jun 20:18:35 20:22:25 39° 70° (ENE) 20:26:17 437.432
NUDT-PHONESAT 28 Jun 20:23:25 20:25:05 12° 271° (W) 20:26:45 437.300
AO-73 28 Jun 20:26:57 20:30:53 29° 66° (ENE) 20:34:50 145.935
KKS-1 28 Jun 20:30:59 20:32:35 12° 305° (NW) 20:34:11 437.445
AO-85 28 Jun 20:32:13 20:35:46 30° 119° (ESE) 20:39:14 145.980
STRAND 1 28 Jun 20:34:39 20:39:23 35° 96° (E) 20:44:04 437.568
CUTE-I 28 Jun 20:44:35 20:47:15 14° 273° (W) 20:49:57 437.470
NO-84 28 Jun 20:45:29 20:46:57 12° 124° (SE) 20:48:27 435.350 FM
STARS 28 Jun 20:49:37 20:52:12 15° 302° (WNW) 20:54:46 437.465
Oscar 11 28 Jun 20:49:41 20:53:38 36° 68° (ENE) 20:57:36 .
CUBEBUG 2 28 Jun 20:50:50 20:55:27 62° 259° (W) 21:00:12 437.445
YUBILEINY 28 Jun 20:55:44 21:01:12 18° 73° (ENE) 21:06:39 435.215
HO-68 28 Jun 21:01:44 21:08:22 39° 263° (W) 21:15:04 435.675
ZACube-1 28 Jun 21:03:27 21:08:01 69° 73° (ENE) 21:12:36 437.345
BEESAT 2 28 Jun 21:07:56 21:10:33 17° 112° (ESE) 21:13:11 435.950
DELFI C3 28 Jun 21:13:23 21:15:59 17° 63° (ENE) 21:18:37 145.870
SEEDS 28 Jun 21:14:30 21:18:05 27° 265° (W) 21:21:42 437.485
UWE-3 28 Jun 21:16:55 21:21:28 55° 260° (W) 21:26:06 435.000/436.395/437.385
EO-88 28 Jun 21:18:56 21:20:38 13° 61° (ENE) 21:22:20 145.990 - 145.960
O/OREOS (USA 219) 28 Jun 21:24:08 21:27:57 27° 105° (ESE) 21:31:46 437.305
BEESAT 3 28 Jun 21:36:20 21:40:19 79° 125° (SE) 21:44:22 437.485
RS-15 28 Jun 21:38:15 21:50:14 67° 118° (ESE) 22:02:24 29.354- 29.394
CUTE 1.7 + AOD 2 28 Jun 21:42:02 21:43:09 11° 273° (W) 21:44:17 437.475
PCSat 28 Jun 21:43:04 21:48:22 54° 242° (WSW) 21:53:38 145.827
SO-50 28 Jun 21:44:01 21:48:05 31° 38° (NE) 21:52:09 436.795
AAUSAT CUBESAT 2 28 Jun 21:54:51 21:58:02 21° 267° (W) 22:01:14 437.432
FO-29 28 Jun 21:59:45 22:05:31 22° 85° (E) 22:11:11 435.910
AO-73 28 Jun 22:02:46 22:07:00 37° 264° (W) 22:11:15 145.935
AO-85 28 Jun 22:12:24 22:16:05 35° 318° (NW) 22:19:44 145.980
STRAND 1 28 Jun 22:13:51 22:18:34 37° 295° (WNW) 22:23:15 437.568
UNISAT 6 28 Jun 22:16:21 22:17:28 11° 85° (E) 22:18:35 437.425
NO-84 28 Jun 22:19:50 22:23:44 64° 142° (SE) 22:27:54 435.350 FM
Oscar 11 28 Jun 22:26:10 22:29:51 26° 266° (W) 22:33:32 .
ZACube-1 28 Jun 22:42:00 22:44:45 16° 272° (W) 22:47:31 437.345
BEESAT 2 28 Jun 22:43:53 22:47:51 63° 311° (NW) 22:51:54 435.950
DELFI C3 28 Jun 22:46:38 22:50:26 49° 260° (W) 22:54:15 145.870
M-CUBED/EXP-1 PRIME 28 Jun 22:47:15 22:50:07 20° 100° (E) 22:53:07 437.505
YUBILEINY 28 Jun 22:47:41 22:56:28 78° 96° (E) 23:05:20 435.215
EO-88 28 Jun 22:50:12 22:53:50 63° 259° (WSW) 22:57:30 145.990 - 145.960
LO-87 28 Jun 23:01:10 23:04:07 24° 67° (ENE) 23:07:06 145.935 - 145.965
O/OREOS (USA 219) 28 Jun 23:02:56 23:07:12 39° 304° (WNW) 23:11:29 437.305
TIGRISAT 28 Jun 23:07:17 23:11:26 31° 95° (E) 23:15:28 435.000
BEESAT 3 28 Jun 23:15:23 23:18:23 20° 327° (NNW) 23:21:25 437.485
SO-50 28 Jun 23:24:22 23:28:43 48° 238° (WSW) 23:33:05 436.795
PRISM 28 Jun 23:27:20 23:31:20 47° 100° (E) 23:35:19 437.425
VELOX 1 28 Jun 23:30:45 23:32:15 12° 55° (NE) 23:33:45 145.980
ESTCUBE 1 28 Jun 23:42:29 23:46:48 48° 70° (ENE) 23:51:08 437.505/2401.250
FO-29 28 Jun 23:43:35 23:51:30 87° 108° (ESE) 23:59:17 435.910
UNISAT 6 28 Jun 23:50:15 23:54:57 85° 104° (ESE) 23:59:30 437.425
RS-15 28 Jun 23:51:20 00:03:21 55° 325° (NW) 00:15:25 29.354- 29.394
AO-85 28 Jun 23:56:46 23:57:37 11° 341° (NNW) 23:58:28 145.980
NO-84 28 Jun 23:57:36 00:01:31 42° 344° (NNW) 00:05:39 435.350 FM
M-CUBED/EXP-1 PRIME 29 Jun 00:21:08 00:24:40 41° 295° (WNW) 00:28:28 437.505
BEESAT 2 29 Jun 00:24:00 00:26:25 15° 333° (NNW) 00:28:50 435.950
EO-79 29 Jun 00:28:04 00:30:40 16° 90° (E) 00:33:14 145.935-145.965
LO-87 29 Jun 00:34:25 00:37:29 27° 265° (W) 00:40:36 145.935 - 145.965
DUCHIFAT 1 29 Jun 00:37:23 00:39:59 16° 90° (E) 00:42:35 145.980
TIGRISAT 29 Jun 00:43:55 00:48:07 34° 294° (WNW) 00:52:14 435.000
YUBILEINY 29 Jun 00:46:52 00:54:16 29° 299° (WNW) 01:01:45 435.215
NANOSAT C BR1 29 Jun 00:47:30 00:50:51 22° 93° (E) 00:54:09 145.865
SPROUT 29 Jun 00:55:27 00:59:42 71° 74° (ENE) 01:04:00 437.525
PRISM 29 Jun 01:03:20 01:06:19 20° 298° (WNW) 01:09:18 437.425
VELOX 1 29 Jun 01:03:35 01:07:57 80° 75° (ENE) 01:12:22 145.980
DX 1 29 Jun 01:11:05 01:15:01 35° 67° (ENE) 01:18:58 434.975-435.025
AIST 2D 29 Jun 01:15:39 01:19:09 75° 285° (WNW) 01:22:37 435.315
UKube-1 29 Jun 01:20:23 01:24:10 31° 65° (ENE) 01:27:57 .
ESTCUBE 1 29 Jun 01:20:27 01:23:52 21° 268° (W) 01:27:16 437.505/2401.250
50 SAT 29 Jun 01:21:47 01:25:05 57° 73° (ENE) 01:28:26 437.505
POLYITAN 1 29 Jun 01:28:21 01:32:38 61° 102° (ESE) 01:36:50 437.675
UNISAT 6 29 Jun 01:28:25 01:30:59 15° 303° (WNW) 01:33:31 437.425
FO-29 29 Jun 01:29:26 01:35:39 27° 305° (NW) 01:41:53 435.910
BUGSAT 1 29 Jun 01:31:36 01:34:35 18° 91° (E) 01:37:32 437.445
NO-84 29 Jun 01:35:55 01:39:50 34° 5° (N) 01:43:51 435.350 FM
QB50P2 29 Jun 01:39:25 01:43:44 86° 101° (E) 01:48:00 145.880/145.840
Oscar 19 29 Jun 01:40:36 01:41:09 10° 84° (E) 01:41:42 437.125/150
EO-79 29 Jun 02:02:36 02:06:50 60° 288° (WNW) 02:11:01 145.935-145.965
RS-15 29 Jun 02:08:04 02:19:16 37° 358° (N) 02:30:14 29.354- 29.394
DUCHIFAT 1 29 Jun 02:11:50 02:16:03 59° 288° (WNW) 02:20:13 145.980
NANOSAT C BR1 29 Jun 02:22:42 02:26:44 42° 291° (WNW) 02:30:44 145.865
ITUPSAT 1 29 Jun 02:32:57 02:36:35 22° 60° (ENE) 02:40:13 437.325
SPROUT 29 Jun 02:34:00 02:36:06 13° 272° (W) 02:38:14 437.525
BEESAT 29 Jun 02:39:57 02:43:50 25° 62° (ENE) 02:47:42 436.000
VELOX 1 29 Jun 02:43:12 02:44:59 12° 272° (W) 02:46:47 145.980
DX 1 29 Jun 02:47:35 02:51:15 27° 265° (W) 02:54:58 434.975-435.025
UKube-1 29 Jun 02:56:20 03:00:09 31° 264° (W) 03:04:00 .
50 SAT 29 Jun 02:57:32 02:58:15 10° 271° (W) 02:58:58 437.505
Gurwin Techsat 1B 29 Jun 03:01:51 03:06:46 36° 96° (E) 03:11:39 435.225
POLYITAN 1 29 Jun 03:05:11 03:07:57 17° 300° (WNW) 03:10:44 437.675
BUGSAT 1 29 Jun 03:06:05 03:10:14 50° 289° (WNW) 03:14:19 437.445
MOZHAYETS 4 29 Jun 03:12:59 03:17:01 30° 65° (ENE) 03:21:04
NO-84 29 Jun 03:13:40 03:18:00 64° 26° (NNE) 03:22:21 435.350 FM
Oscar 19 29 Jun 03:16:15 03:21:24 72° 103° (ESE) 03:26:31 437.125/150
QB50P2 29 Jun 03:16:57 03:18:53 13° 303° (WNW) 03:20:49 145.880/145.840
AO-85 29 Jun 03:19:15 03:22:01 18° 31° (NNE) 03:24:52 145.980
BEESAT 2 29 Jun 03:44:05 03:45:34 12° 21° (NNE) 03:47:04 435.950
ITAMSAT 1 29 Jun 04:03:17 04:06:54 19° 90° (E) 04:10:30 435.822/435.867
CUBESAT XI-V 29 Jun 04:05:12 04:08:41 22° 62° (ENE) 04:12:11 437.345
ITUPSAT 1 29 Jun 04:09:18 04:14:02 57° 259° (W) 04:18:48 437.325
BEESAT 3 29 Jun 04:12:35 04:16:00 25° 37° (NE) 04:19:23 437.485
BEESAT 29 Jun 04:16:43 04:21:20 48° 260° (W) 04:26:00 436.000
KKS-1 29 Jun 04:18:38 04:21:54 20° 61° (ENE) 04:25:11 437.445
RS-15 29 Jun 04:23:22 04:35:19 51° 31° (NNE) 04:46:46 29.354- 29.394
STARS 29 Jun 04:37:56 04:40:25 15° 58° (ENE) 04:42:55 437.465
Gurwin Techsat 1B 29 Jun 04:41:51 04:46:43 37° 295° (WNW) 04:51:34 435.225
MOZHAYETS 4 29 Jun 04:49:50 04:54:06 36° 264° (W) 04:58:23
NO-84 29 Jun 04:51:30 04:55:27 34° 225° (SW) 04:59:21 435.350 FM
Oscar 19 29 Jun 04:56:36 05:00:11 20° 302° (WNW) 05:03:47 437.125/150
AO-7 29 Jun 04:58:06 05:06:16 51° 101° (ESE) 05:14:20 .
AO-85 29 Jun 04:58:54 05:02:59 85° 52° (NE) 05:07:18 145.980
BEESAT 2 29 Jun 05:20:36 05:24:26 38° 43° (NE) 05:28:14 435.950
CUBESAT XI-V 29 Jun 05:41:13 05:45:44 52° 260° (W) 05:50:16 437.345
ITAMSAT 1 29 Jun 05:41:39 05:46:53 70° 289° (WNW) 05:52:04 435.822/435.867
BEESAT 3 29 Jun 05:49:55 05:53:50 51° 238° (WSW) 05:57:40 437.485
O/OREOS (USA 219) 29 Jun 05:51:11 05:54:06 17° 45° (NE) 05:57:01 437.305
KKS-1 29 Jun 05:53:46 05:58:06 53° 259° (W) 06:02:30 437.445
STARS 29 Jun 06:11:48 06:16:10 77° 255° (WSW) 06:20:37 437.465
STRAND 1 29 Jun 06:18:28 06:20:48 13° 53° (NE) 06:23:10 437.568
RS-15 29 Jun 06:36:34 06:48:42 73° 239° (WSW) 07:00:11 29.354- 29.394
AO-85 29 Jun 06:40:55 06:42:51 13° 248° (WSW) 06:44:49 145.980
XW-2F 29 Jun 06:43:59 06:45:27 12° 89° (E) 06:46:54 145.980 - 146.000
XW-2D 29 Jun 06:50:15 06:52:31 15° 90° (E) 06:54:47 145.860 - 145.880
AO-7 29 Jun 06:51:07 06:58:58 46° 302° (WNW) 07:06:47 .
DOVE 4 29 Jun 06:56:37 07:01:24 46° 98° (E) 07:06:23 437.250
BEESAT 2 29 Jun 06:58:32 07:02:07 30° 242° (WSW) 07:05:39 435.950
YUBILEINY 29 Jun 06:58:46 07:02:11 12° 43° (NE) 07:05:36 435.215
XW-2B 29 Jun 06:59:04 07:01:44 18° 92° (E) 07:04:23 145.730 - 145.750
LilacSat-2 29 Jun 07:03:06 07:06:05 21° 93° (E) 07:09:02 437.200
XW-2C 29 Jun 07:14:21 07:17:36 27° 95° (E) 07:20:48 145.795 - 145.815
CUTE-I 29 Jun 07:14:38 07:19:15 28° 94° (E) 07:23:48 437.470
KAITUO 1B 29 Jun 07:18:16 07:21:17 23° 94° (E) 07:24:16 145.475/437.950
ITAMSAT 1 29 Jun 07:23:04 07:25:26 13° 308° (NW) 07:27:47 435.822/435.867
O/OREOS (USA 219) 29 Jun 07:29:38 07:34:07 82° 247° (WSW) 07:38:36 437.305
CUTE 1.7 + AOD 2 29 Jun 07:45:40 07:47:01 11° 87° (E) 07:48:20 437.475
NUDT-PHONESAT 29 Jun 07:47:32 07:51:09 48° 100° (E) 07:54:43 437.300
STRAND 1 29 Jun 07:53:59 07:59:06 72° 72° (ENE) 08:04:16 437.568
ISS 29 Jun 08:00:47 08:03:09 19° 139° (SE) 08:05:34 437.550
XW-2F 29 Jun 08:16:17 08:20:00 61° 286° (WNW) 08:23:40 145.980 - 146.000
FO-29 29 Jun 08:18:13 08:21:57 16° 45° (NE) 08:25:53 435.910
XW-2D 29 Jun 08:23:21 08:26:59 47° 288° (WNW) 08:30:36 145.860 - 145.880
HO-68 29 Jun 08:24:35 08:31:09 36° 96° (E) 08:37:37 435.675
Tancredo 1 29 Jun 08:26:43 08:29:39 50° 151° (SSE) 08:32:36 437.200
XW-2B 29 Jun 08:32:34 08:36:06 39° 290° (WNW) 08:39:36 145.730 - 145.750
DOVE 4 29 Jun 08:34:43 08:38:53 28° 295° (WNW) 08:43:13 437.250
LilacSat-2 29 Jun 08:37:01 08:40:27 33° 291° (WNW) 08:43:51 437.200
CUBEBUG 2 29 Jun 08:38:26 08:42:13 23° 91° (E) 08:45:53 437.445
AO-7 29 Jun 08:45:27 08:49:43 15° 326° (NW) 08:53:58 .
XW-2C 29 Jun 08:48:32 08:51:44 27° 293° (WNW) 08:54:56 145.795 - 145.815
RS-15 29 Jun 08:51:00 08:58:50 21° 264° (W) 09:06:28 29.354- 29.394
ZACube-1 29 Jun 08:51:03 08:51:43 10° 85° (E) 08:52:23 437.345
KAITUO 1B 29 Jun 08:52:03 08:55:19 30° 292° (WNW) 08:58:34 145.475/437.950
YUBILEINY 29 Jun 08:53:19 09:01:50 48° 70° (ENE) 09:10:14 435.215
SEEDS 29 Jun 08:53:43 08:57:36 36° 97° (E) 09:01:27 437.485
CUTE-I 29 Jun 08:54:20 08:59:31 48° 292° (WNW) 09:04:38 437.470
UWE-3 29 Jun 09:03:14 09:07:00 25° 92° (E) 09:10:39 435.000/436.395/437.385
XW-2A 29 Jun 09:05:01 09:08:22 52° 100° (E) 09:11:41 145.665 - 145.685
UNISAT 6 29 Jun 09:17:36 09:20:35 17° 59° (ENE) 09:23:35 437.425
CUTE 1.7 + AOD 2 29 Jun 09:19:12 09:23:25 80° 286° (WNW) 09:27:37 437.475
NUDT-PHONESAT 29 Jun 09:22:23 09:24:41 16° 297° (WNW) 09:26:58 437.300
AAUSAT CUBESAT 2 29 Jun 09:31:51 09:35:49 44° 98° (E) 09:39:45 437.432
STRAND 1 29 Jun 09:35:28 09:38:50 17° 271° (W) 09:42:15 437.568
ISS 29 Jun 09:36:01 09:39:18 88° 153° (SSE) 09:42:36 437.550
M-CUBED/EXP-1 PRIME 29 Jun 09:36:44 09:39:49 41° 65° (ENE) 09:42:57 437.505
AO-73 29 Jun 09:46:49 09:50:51 33° 95° (E) 09:54:46 145.935
FO-29 29 Jun 09:59:06 10:05:24 59° 67° (ENE) 10:12:32 435.910
Tancredo 1 29 Jun 10:02:17 10:05:15 50° 350° (N) 10:08:13 437.200
Oscar 11 29 Jun 10:08:41 10:12:49 42° 98° (E) 10:16:54 .
TIGRISAT 29 Jun 10:08:58 10:13:21 42° 68° (ENE) 10:17:47 435.000
HO-68 29 Jun 10:12:11 10:19:08 54° 296° (WNW) 10:26:02 435.675
CUBEBUG 2 29 Jun 10:14:32 10:19:03 46° 290° (WNW) 10:23:25 437.445
PRISM 29 Jun 10:19:50 10:23:48 55° 71° (ENE) 10:27:46 437.425
DELFI C3 29 Jun 10:20:37 10:23:05 16° 90° (E) 10:25:32 145.870
ZACube-1 29 Jun 10:24:14 10:28:44 87° 109° (ESE) 10:33:04 437.345
SEEDS 29 Jun 10:29:44 10:33:08 25° 295° (WNW) 10:36:31 437.485
XW-2A 29 Jun 10:39:07 10:40:42 13° 298° (WNW) 10:42:17 145.665 - 145.685
UWE-3 29 Jun 10:39:17 10:43:36 41° 291° (WNW) 10:47:48 435.000/436.395/437.385
PCSat 29 Jun 10:49:59 10:50:51 10° 101° (E) 10:51:44 145.827
YUBILEINY 29 Jun 10:50:22 10:58:38 46° 273° (W) 11:06:50 435.215
UNISAT 6 29 Jun 10:52:05 10:56:44 74° 258° (WSW) 11:01:28 437.425
POLYITAN 1 29 Jun 10:52:32 10:53:16 10° 55° (NE) 10:53:58 437.675
CUTE 1.7 + AOD 2 29 Jun 10:57:35 10:58:31 11° 304° (WNW) 10:59:28 437.475
QB50P2 29 Jun 11:02:01 11:04:11 14° 58° (ENE) 11:06:22 145.880/145.840
AAUSAT CUBESAT 2 29 Jun 11:07:56 11:11:00 21° 297° (WNW) 11:14:05 437.432
ISS 29 Jun 11:12:48 11:15:59 46° 357° (N) 11:19:11 437.550
M-CUBED/EXP-1 PRIME 29 Jun 11:12:52 11:14:33 13° 263° (W) 11:16:15 437.505
AO-73 29 Jun 11:23:11 11:27:01 29° 294° (WNW) 11:30:44 145.935
EO-79 29 Jun 11:23:49 11:26:55 20° 62° (ENE) 11:30:02 145.935-145.965
DUCHIFAT 1 29 Jun 11:32:30 11:35:35 20° 62° (ENE) 11:38:41 145.980
Tancredo 1 29 Jun 11:38:08 11:41:07 49° 10° (N) 11:44:05 437.200
NANOSAT C BR1 29 Jun 11:42:52 11:46:27 27° 65° (ENE) 11:50:03 145.865
Oscar 11 29 Jun 11:45:20 11:48:43 23° 296° (WNW) 11:52:05 .
FO-29 29 Jun 11:45:21 11:50:56 31° 270° (W) 11:57:08 435.910
TIGRISAT 29 Jun 11:46:17 11:50:10 26° 267° (W) 11:54:07 435.000
EO-88 29 Jun 11:48:44 11:52:24 82° 283° (WNW) 11:56:02 145.990 - 145.960
AIST 2D 29 Jun 11:53:01 11:56:32 67° 75° (ENE) 12:00:04 435.315
DELFI C3 29 Jun 11:54:18 11:58:09 50° 288° (WNW) 12:01:59 145.870
PRISM 29 Jun 11:56:59 11:59:26 15° 269° (W) 12:01:52 437.425
LO-87 29 Jun 11:57:39 12:00:15 18° 92° (E) 12:02:50 145.935 - 145.965
HO-68 29 Jun 12:01:46 12:05:20 15° 318° (NW) 12:08:55 435.675
ZACube-1 29 Jun 12:02:12 12:04:19 13° 303° (WNW) 12:06:25 437.345
POLYITAN 1 29 Jun 12:23:59 12:28:15 74° 74° (ENE) 12:32:34 437.675
BUGSAT 1 29 Jun 12:24:40 12:27:52 22° 63° (ENE) 12:31:06 437.445
PCSat 29 Jun 12:27:50 12:33:11 65° 119° (ESE) 12:38:35 145.827
QB50P2 29 Jun 12:35:06 12:39:23 80° 256° (WSW) 12:43:43 145.880/145.840
